Location: Unspecified
(0.0000°N, 0.0000°E)
Time: 19:33:09
(UTC+00:00)

ARGOS - Visible Passes

Search period start: 18 May 2026 00:00
Search period end: 28 May 2026 00:00
Orbit: 817 x 833 km, 98.5° (Epoch: 18 May)

Date Brightness Start Highest point End Pass type
(mag) Time Alt. Az. Time Alt. Az. Time Alt. Az.
18 May 5.3 03:24:18 10° N 03:25:26 17° N 03:25:26 17° N visible
19 May 5.5 03:05:05 10° NNE 03:06:00 15° NNE 03:06:00 15° NNE visible
20 May 5.9 02:46:12 10° NNE 02:46:35 12° NNE 02:46:35 12° NNE visible
21 May 5.3 04:08:08 10° NNW 04:08:37 12° NW 04:08:37 12° NW visible
22 May 5.2 03:48:03 10° NNW 03:49:11 16° NNW 03:49:11 16° NNW visible
23 May 5.2 03:28:26 10° N 03:29:46 18° N 03:29:46 18° N visible
24 May 5.4 03:09:09 10° NNE 03:10:19 17° NNE 03:10:19 17° NNE visible
25 May 5.8 02:50:11 10° NNE 02:50:53 14° NNE 02:50:53 14° NNE visible
26 May 5.3 04:12:32 10° NW 04:12:55 11° NW 04:12:55 11° NW visible
27 May 5.1 03:52:18 10° NNW 03:53:28 16° NNW 03:53:28 16° NNW visible
